CW0858 Weather Reports


Display with metric or nautical units.
time (UTC)temp
F
wind
direction
speed
MPH
gust
MPH
rain 1hr
in
rain 24hr
in
rain mn
in
humidity
%
barometer
mb
20260503190030 83 308 0.0 4.0 0.00 0.00 0.00 37 1010.2
20260503184530 82 129 0.0 4.0 0.00 0.00 0.00 38 1010.3
20260503183044 80 303 0.0 5.0 0.00 0.00 0.00 40 1010.5
20260503181529 79 132 1.0 3.0 0.00 0.00 0.00 42 1010.6
20260503180028 78 305 0.0 3.0 0.00 0.00 0.00 46 1010.7
20260503174527 76 0 0.0 4.0 0.00 0.00 0.00 48 1010.8
20260503173028 75 351 1.0 3.0 0.00 0.00 0.00 50 1011.0
20260503171528 73 130 0.0 2.0 0.00 0.00 0.00 54 1011.1
20260503081534 54 0 0.0 0.0 0.00 0.00 0.00 91 1012.1
20260503071529 57 0 0.0 0.0 0.00 0.00 0.00 88 1012.2
20260503054529 60 0 0.0 0.0 0.00 0.00 0.00 83 1012.1
20260503053028 61 0 0.0 1.0 0.00 0.00 0.00 82 1011.9
20260503051527 62 0 0.0 0.0 0.00 0.00 0.00 80 1012.0
20260503050035 63 105 0.0 1.0 0.00 0.00 0.00 79 1012.3
20260503044531 63 0 0.0 3.0 0.00 0.00 0.00 78 1012.1
20260503043029 62 0 0.0 0.0 0.00 0.00 0.00 79 1011.9
20260503041530 62 0 0.0 1.0 0.00 0.00 0.00 79 1012.1
20260503040035 63 0 0.0 0.0 0.00 0.00 0.00 77 1012.2
20260503034536 63 0 0.0 0.0 0.00 0.00 0.00 76 1012.0
20260503033030 64 0 0.0 1.0 0.00 0.00 0.00 75 1011.8
20260503031528 64 0 0.0 1.0 0.00 0.00 0.00 74 1011.7
20260503030030 65 0 0.0 0.0 0.00 0.00 0.00 73 1011.7
20260503024528 65 282 0.0 4.0 0.00 0.00 0.00 72 1011.8
20260503023030 66 0 0.0 3.0 0.00 0.00 0.00 70 1011.8
20260503021530 67 319 1.0 6.0 0.00 0.00 0.00 70 1011.9
20260503020028 69 122 1.0 7.0 0.00 0.00 0.00 65 1011.7
20260503014539 69 0 0.0 1.0 0.00 0.00 0.00 65 1011.1
20260503013032 70 109 0.0 1.0 0.00 0.00 0.00 63 1011.0
20260503011537 70 0 0.0 0.0 0.00 0.00 0.00 63 1011.0
20260503010029 70 0 0.0 1.0 0.00 0.00 0.00 64 1011.0
20260503004530 70 104 0.0 1.0 0.00 0.00 0.00 65 1010.9
20260503003028 69 0 0.0 0.0 0.00 0.00 0.00 65 1011.0
20260503001528 69 208 0.0 1.0 0.00 0.00 0.00 65 1010.9
20260503000028 69 0 0.0 1.0 0.00 0.00 0.00 65 1011.0
20260502234528 70 0 0.0 3.0 0.00 0.00 0.00 64 1011.0
20260502233036 69 170 0.0 2.0 0.00 0.00 0.00 60 1011.2
20260502231538 69 23 0.0 3.0 0.00 0.00 0.00 59 1011.4
20260502230028 69 0 0.0 1.0 0.00 0.00 0.00 61 1011.5
20260502224531 69 145 0.0 3.0 0.00 0.00 0.00 61 1011.9
20260502223028 68 27 0.0 2.0 0.00 0.00 0.00 61 1012.0
20260502221527 67 300 0.0 2.0 0.00 0.00 0.00 62 1012.4
20260502220037 67 0 0.0 2.0 0.00 0.00 0.00 62 1012.6
20260502214530 66 115 0.0 2.0 0.00 0.00 0.00 64 1012.9
20260502213030 65 294 0.0 3.0 0.00 0.00 0.00 65 1013.0
20260502211540 65 115 0.0 2.0 0.00 0.00 0.00 65 1013.3
20260502210028 64 137 0.0 3.0 0.00 0.00 0.00 66 1013.4
20260502204528 63 120 1.0 3.0 0.00 0.00 0.00 68 1013.7
20260502203030 61 0 0.0 2.0 0.00 0.00 0.00 74 1014.1
20260502201529 60 308 1.0 2.0 0.00 0.00 0.00 72 1014.2
20260502200029 60 0 0.0 2.0 0.00 0.00 0.00 73 1014.5
20260502194528 59 5 0.0 4.0 0.00 0.00 0.00 74 1014.5
20260502193028 57 1 0.0 3.0 0.00 0.00 0.00 79 1014.5
20260502191533 56 307 0.0 2.0 0.00 0.00 0.00 82 1015.2